Time,TemperatureF,DewpointF,PressureIn,WindDirection,WindDirectionDegrees,WindSpeedMPH,WindSpeedGustMPH,Humidity,HourlyPrecipIn,Conditions,Clouds,dailyrainin,SoftwareType,DateUTC
2013-10-09 00:05:00,63.3,45.4,29.80,East,100,9.0,14.0,52,0.00,,,0.00,Wunderground v.1.15,2013-10-09 05:05:00,
2013-10-09 00:07:00,62.8,45.4,29.80,SE,135,8.0,-999.0,53,0.00,,,0.00,Wunderground v.1.15,2013-10-09 05:07:00,
2013-10-09 00:10:00,63.2,45.3,29.80,SE,136,9.0,15.0,52,0.00,,,0.00,Wunderground v.1.15,2013-10-09 05:10:00,
2013-10-09 00:12:00,62.8,45.4,29.80,SE,135,8.0,-999.0,53,0.00,,,0.00,Wunderground v.1.15,2013-10-09 05:12:00,
2013-10-09 00:16:00,63.0,45.1,29.80,SE,128,9.0,15.0,52,0.00,,,0.00,Wunderground v.1.15,2013-10-09 05:16:00,
2013-10-09 00:17:00,62.8,45.4,29.80,SE,135,8.0,-999.0,53,0.00,,,0.00,Wunderground v.1.15,2013-10-09 05:17:00,
2013-10-09 00:22:00,62.7,45.3,29.80,SE,133,7.0,14.0,53,0.00,,,0.00,Wunderground v.1.15,2013-10-09 05:22:00,
2013-10-09 00:27:00,62.8,45.4,29.80,SE,133,8.0,15.0,53,0.00,,,0.00,Wunderground v.1.15,2013-10-09 05:27:00,
2013-10-09 00:32:00,62.7,45.3,29.80,SE,124,9.0,14.0,53,0.00,,,0.00,Wunderground v.1.15,2013-10-09 05:32:00,
2013-10-09 00:37:00,62.8,45.4,29.80,SE,135,8.0,-999.0,53,0.00,,,0.00,Wunderground v.1.15,2013-10-09 05:37:00,
2013-10-09 00:38:00,62.5,45.1,29.80,SE,146,7.0,14.0,53,0.00,,,0.00,Wunderground v.1.15,2013-10-09 05:38:00,
2013-10-09 00:42:00,62.8,45.4,29.80,SE,135,8.0,-999.0,53,0.00,,,0.00,Wunderground v.1.15,2013-10-09 05:42:00,
2013-10-09 00:43:00,62.4,45.5,29.80,SE,134,7.0,14.0,54,0.00,,,0.00,Wunderground v.1.15,2013-10-09 05:43:00,
2013-10-09 00:47:00,62.2,45.3,29.80,SE,135,7.0,-999.0,54,0.00,,,0.00,Wunderground v.1.15,2013-10-09 05:47:00,
2013-10-09 00:49:00,62.3,45.4,29.80,SSE,153,8.0,14.0,54,0.00,,,0.00,Wunderground v.1.15,2013-10-09 05:49:00,
2013-10-09 00:52:00,62.2,45.3,29.80,SE,135,7.0,-999.0,54,0.00,,,0.00,Wunderground v.1.15,2013-10-09 05:52:00,
2013-10-09 00:54:00,62.2,45.3,29.80,SE,128,7.0,14.0,54,0.00,,,0.00,Wunderground v.1.15,2013-10-09 05:54:00,
2013-10-09 00:57:00,62.2,45.3,29.80,SE,135,7.0,-999.0,54,0.00,,,0.00,Wunderground v.1.15,2013-10-09 05:57:00,
2013-10-09 01:00:00,62.1,45.2,29.80,SE,134,7.0,14.0,54,0.00,,,0.00,Wunderground v.1.15,2013-10-09 06:00:00,
2013-10-09 01:02:00,62.2,45.3,29.80,SE,135,7.0,-999.0,54,0.00,,,0.00,Wunderground v.1.15,2013-10-09 06:02:00,
2013-10-09 01:05:00,62.0,45.2,29.80,SE,138,7.0,14.0,54,0.00,,,0.00,Wunderground v.1.15,2013-10-09 06:05:00,
2013-10-09 01:07:00,62.2,45.3,29.80,SE,135,7.0,-999.0,54,0.00,,,0.00,Wunderground v.1.15,2013-10-09 06:07:00,
2013-10-09 01:11:00,61.8,45.0,29.80,SE,136,7.0,8.0,54,0.00,,,0.00,Wunderground v.1.15,2013-10-09 06:11:00,
2013-10-09 01:12:00,62.2,45.3,29.80,SE,135,7.0,-999.0,54,0.00,,,0.00,Wunderground v.1.15,2013-10-09 06:12:00,
2013-10-09 01:16:00,61.7,44.9,29.80,SSE,153,7.0,14.0,54,0.00,,,0.00,Wunderground v.1.15,2013-10-09 06:16:00,
2013-10-09 01:17:00,61.4,45.1,29.80,SE,135,7.0,-999.0,55,0.00,,,0.00,Wunderground v.1.15,2013-10-09 06:17:00,
2013-10-09 01:22:00,61.5,45.2,29.80,SE,130,6.0,14.0,55,0.00,,,0.00,Wunderground v.1.15,2013-10-09 06:22:00,
2013-10-09 01:27:00,61.4,45.1,29.80,SE,128,6.0,14.0,55,0.00,,,0.00,Wunderground v.1.15,2013-10-09 06:27:00,
2013-10-09 01:32:00,61.4,45.1,29.80,SE,135,7.0,-999.0,55,0.00,,,0.00,Wunderground v.1.15,2013-10-09 06:32:00,
2013-10-09 01:33:00,61.3,45.0,29.80,ESE,116,6.0,14.0,55,0.00,,,0.00,Wunderground v.1.15,2013-10-09 06:33:00,
2013-10-09 01:37:00,61.4,45.1,29.80,SE,135,7.0,-999.0,55,0.00,,,0.00,Wunderground v.1.15,2013-10-09 06:37:00,
2013-10-09 01:38:00,61.1,44.8,29.80,SE,130,6.0,14.0,55,0.00,,,0.00,Wunderground v.1.15,2013-10-09 06:38:00,
2013-10-09 01:42:00,61.4,45.1,29.80,SE,135,7.0,-999.0,55,0.00,,,0.00,Wunderground v.1.15,2013-10-09 06:42:00,
2013-10-09 01:44:00,60.9,44.6,29.80,SE,126,6.0,14.0,55,0.00,,,0.00,Wunderground v.1.15,2013-10-09 06:44:00,
2013-10-09 01:47:00,60.7,44.4,29.80,SE,135,6.0,-999.0,55,0.00,,,0.00,Wunderground v.1.15,2013-10-09 06:47:00,
2013-10-09 01:49:00,60.9,44.6,29.80,ESE,117,6.0,14.0,55,0.00,,,0.00,Wunderground v.1.15,2013-10-09 06:49:00,
2013-10-09 01:52:00,60.7,44.4,29.80,SE,135,6.0,-999.0,55,0.00,,,0.00,Wunderground v.1.15,2013-10-09 06:52:00,
2013-10-09 01:55:00,60.8,44.5,29.80,ESE,119,7.0,14.0,55,0.00,,,0.00,Wunderground v.1.15,2013-10-09 06:55:00,
2013-10-09 01:57:00,60.7,44.4,29.80,SE,135,6.0,-999.0,55,0.00,,,0.00,Wunderground v.1.15,2013-10-09 06:57:00,
2013-10-09 02:01:00,60.8,44.5,29.80,SE,126,7.0,14.0,55,0.00,,,0.00,Wunderground v.1.15,2013-10-09 07:01:00,
2013-10-09 02:02:00,60.7,44.4,29.80,SE,135,6.0,-999.0,55,0.00,,,0.00,Wunderground v.1.15,2013-10-09 07:02:00,
2013-10-09 02:07:00,60.7,44.4,29.80,ESE,113,7.0,14.0,55,0.00,,,0.00,Wunderground v.1.15,2013-10-09 07:07:00,
2013-10-09 02:12:00,60.6,44.3,29.80,ESE,118,7.0,14.0,55,0.00,,,0.00,Wunderground v.1.15,2013-10-09 07:12:00,
2013-10-09 02:17:00,60.2,44.4,29.81,ESE,113,7.0,-999.0,56,0.00,,,0.00,Wunderground v.1.15,2013-10-09 07:17:00,
2013-10-09 02:18:00,60.5,44.2,29.80,ESE,121,7.0,14.0,55,0.00,,,0.00,Wunderground v.1.15,2013-10-09 07:18:00,
2013-10-09 02:22:00,60.2,44.4,29.81,ESE,113,7.0,-999.0,56,0.00,,,0.00,Wunderground v.1.15,2013-10-09 07:22:00,
2013-10-09 02:23:00,60.3,44.5,29.80,ESE,117,7.0,14.0,56,0.00,,,0.00,Wunderground v.1.15,2013-10-09 07:23:00,
2013-10-09 02:27:00,60.2,44.4,29.81,ESE,113,7.0,-999.0,56,0.00,,,0.00,Wunderground v.1.15,2013-10-09 07:27:00,
2013-10-09 02:29:00,60.2,44.4,29.81,ESE,113,6.0,14.0,56,0.00,,,0.00,Wunderground v.1.15,2013-10-09 07:29:00,
2013-10-09 02:32:00,60.2,44.4,29.81,ESE,113,7.0,-999.0,56,0.00,,,0.00,Wunderground v.1.15,2013-10-09 07:32:00,
2013-10-09 02:34:00,60.2,44.4,29.81,ESE,115,7.0,14.0,56,0.00,,,0.00,Wunderground v.1.15,2013-10-09 07:34:00,
2013-10-09 02:37:00,60.2,44.4,29.81,ESE,113,7.0,-999.0,56,0.00,,,0.00,Wunderground v.1.15,2013-10-09 07:37:00,
2013-10-09 02:39:00,60.1,44.3,29.80,ESE,116,7.0,14.0,56,0.00,,,0.00,Wunderground v.1.15,2013-10-09 07:39:00,
2013-10-09 02:42:00,60.2,44.4,29.81,ESE,113,7.0,-999.0,56,0.00,,,0.00,Wunderground v.1.15,2013-10-09 07:42:00,
2013-10-09 02:45:00,59.9,44.2,29.80,ESE,119,7.0,14.0,56,0.00,,,0.00,Wunderground v.1.15,2013-10-09 07:45:00,
2013-10-09 02:47:00,59.5,43.8,29.80,ESE,113,6.0,-999.0,56,0.00,,,0.00,Wunderground v.1.15,2013-10-09 07:47:00,
2013-10-09 02:50:00,59.6,43.9,29.80,ESE,123,6.0,14.0,56,0.00,,,0.00,Wunderground v.1.15,2013-10-09 07:50:00,
2013-10-09 02:52:00,59.5,43.8,29.80,ESE,113,6.0,-999.0,56,0.00,,,0.00,Wunderground v.1.15,2013-10-09 07:52:00,
2013-10-09 02:56:00,59.5,43.8,29.80,SE,131,6.0,14.0,56,0.00,,,0.00,Wunderground v.1.15,2013-10-09 07:56:00,
2013-10-09 02:57:00,59.5,43.8,29.80,ESE,113,6.0,-999.0,56,0.00,,,0.00,Wunderground v.1.15,2013-10-09 07:57:00,
2013-10-09 03:01:00,59.5,43.8,29.80,SE,134,6.0,14.0,56,0.00,,,0.00,Wunderground v.1.15,2013-10-09 08:01:00,
2013-10-09 03:02:00,59.5,43.8,29.80,ESE,113,6.0,-999.0,56,0.00,,,0.00,Wunderground v.1.15,2013-10-09 08:02:00,
2013-10-09 03:07:00,59.6,43.9,29.80,SE,130,7.0,14.0,56,0.00,,,0.00,Wunderground v.1.15,2013-10-09 08:07:00,
2013-10-09 03:12:00,59.7,44.0,29.80,SE,140,7.0,14.0,56,0.00,,,0.00,Wunderground v.1.15,2013-10-09 08:12:00,
2013-10-09 03:17:00,60.1,43.9,29.80,SE,135,8.0,-999.0,55,0.00,,,0.00,Wunderground v.1.15,2013-10-09 08:17:00,
2013-10-09 03:18:00,59.9,43.7,29.80,SSE,150,8.0,14.0,55,0.00,,,0.00,Wunderground v.1.15,2013-10-09 08:18:00,
2013-10-09 03:22:00,60.1,43.9,29.80,SE,135,8.0,-999.0,55,0.00,,,0.00,Wunderground v.1.15,2013-10-09 08:22:00,
2013-10-09 03:23:00,60.0,43.8,29.80,SSE,148,9.0,14.0,55,0.00,,,0.00,Wunderground v.1.15,2013-10-09 08:23:00,
2013-10-09 03:27:00,60.1,43.9,29.80,SE,135,8.0,-999.0,55,0.00,,,0.00,Wunderground v.1.15,2013-10-09 08:27:00,
2013-10-09 03:32:00,60.1,43.9,29.80,SE,135,8.0,-999.0,55,0.00,,,0.00,Wunderground v.1.15,2013-10-09 08:32:00,
2013-10-09 03:37:00,60.1,43.9,29.80,SE,135,8.0,-999.0,55,0.00,,,0.00,Wunderground v.1.15,2013-10-09 08:37:00,
2013-10-09 03:42:00,60.1,43.9,29.80,SE,135,8.0,-999.0,55,0.00,,,0.00,Wunderground v.1.15,2013-10-09 08:42:00,
2013-10-09 03:47:00,59.4,43.2,29.80,SE,135,7.0,-999.0,55,0.00,,,0.00,Wunderground v.1.15,2013-10-09 08:47:00,
2013-10-09 03:52:00,59.4,43.2,29.80,SE,135,7.0,-999.0,55,0.00,,,0.00,Wunderground v.1.15,2013-10-09 08:52:00,
2013-10-09 03:57:00,59.4,43.2,29.80,SE,135,7.0,-999.0,55,0.00,,,0.00,Wunderground v.1.15,2013-10-09 08:57:00,
2013-10-09 04:02:00,59.4,43.2,29.80,SE,135,7.0,-999.0,55,0.00,,,0.00,Wunderground v.1.15,2013-10-09 09:02:00,
2013-10-09 04:07:00,59.4,43.2,29.80,SE,135,7.0,-999.0,55,0.00,,,0.00,Wunderground v.1.15,2013-10-09 09:07:00,
2013-10-09 04:12:00,59.4,43.2,29.80,SE,135,7.0,-999.0,55,0.00,,,0.00,Wunderground v.1.15,2013-10-09 09:12:00,
2013-10-09 04:17:00,58.2,43.0,29.80,SE,135,5.0,-999.0,57,0.00,,,0.00,Wunderground v.1.15,2013-10-09 09:17:00,
2013-10-09 04:22:00,58.2,43.0,29.80,SE,135,5.0,-999.0,57,0.00,,,0.00,Wunderground v.1.15,2013-10-09 09:22:00,
2013-10-09 04:27:00,58.2,43.0,29.80,SE,135,5.0,-999.0,57,0.00,,,0.00,Wunderground v.1.15,2013-10-09 09:27:00,
2013-10-09 04:32:00,58.2,43.0,29.80,SE,135,5.0,-999.0,57,0.00,,,0.00,Wunderground v.1.15,2013-10-09 09:32:00,
2013-10-09 04:37:00,58.2,43.0,29.80,SE,135,5.0,-999.0,57,0.00,,,0.00,Wunderground v.1.15,2013-10-09 09:37:00,
2013-10-09 04:42:00,58.2,43.0,29.80,SE,135,5.0,-999.0,57,0.00,,,0.00,Wunderground v.1.15,2013-10-09 09:42:00,
2013-10-09 04:47:00,57.7,43.0,29.80,SE,135,7.0,-999.0,58,0.00,,,0.00,Wunderground v.1.15,2013-10-09 09:47:00,
2013-10-09 04:52:00,57.7,43.0,29.80,SE,135,7.0,-999.0,58,0.00,,,0.00,Wunderground v.1.15,2013-10-09 09:52:00,
2013-10-09 04:57:00,57.7,43.0,29.80,SE,135,7.0,-999.0,58,0.00,,,0.00,Wunderground v.1.15,2013-10-09 09:57:00,
2013-10-09 05:02:00,57.7,43.0,29.80,SE,135,7.0,-999.0,58,0.00,,,0.00,Wunderground v.1.15,2013-10-09 10:02:00,
2013-10-09 05:07:00,57.7,43.0,29.80,SE,135,7.0,-999.0,58,0.00,,,0.00,Wunderground v.1.15,2013-10-09 10:07:00,
2013-10-09 05:12:00,57.7,43.0,29.80,SE,135,7.0,-999.0,58,0.00,,,0.00,Wunderground v.1.15,2013-10-09 10:12:00,
2013-10-09 05:17:00,55.5,42.7,29.80,SE,135,5.0,-999.0,62,0.00,,,0.00,Wunderground v.1.15,2013-10-09 10:17:00,
2013-10-09 05:22:00,55.5,42.7,29.80,SE,135,5.0,-999.0,62,0.00,,,0.00,Wunderground v.1.15,2013-10-09 10:22:00,
2013-10-09 05:27:00,55.5,42.7,29.80,SE,135,5.0,-999.0,62,0.00,,,0.00,Wunderground v.1.15,2013-10-09 10:27:00,
2013-10-09 05:32:00,55.5,42.7,29.80,SE,135,5.0,-999.0,62,0.00,,,0.00,Wunderground v.1.15,2013-10-09 10:32:00,
2013-10-09 05:37:00,55.5,42.7,29.80,SE,135,5.0,-999.0,62,0.00,,,0.00,Wunderground v.1.15,2013-10-09 10:37:00,
2013-10-09 05:42:00,55.5,42.7,29.80,SE,135,5.0,-999.0,62,0.00,,,0.00,Wunderground v.1.15,2013-10-09 10:42:00,
2013-10-09 05:47:00,54.1,42.2,29.81,SE,135,4.0,-999.0,64,0.00,,,0.00,Wunderground v.1.15,2013-10-09 10:47:00,
2013-10-09 05:52:00,54.1,42.2,29.81,SE,135,4.0,-999.0,64,0.00,,,0.00,Wunderground v.1.15,2013-10-09 10:52:00,
2013-10-09 05:57:00,54.1,42.2,29.81,SE,135,4.0,-999.0,64,0.00,,,0.00,Wunderground v.1.15,2013-10-09 10:57:00,
2013-10-09 06:02:00,54.1,42.2,29.81,SE,135,4.0,-999.0,64,0.00,,,0.00,Wunderground v.1.15,2013-10-09 11:02:00,
2013-10-09 06:07:00,54.1,42.2,29.81,SE,135,4.0,-999.0,64,0.00,,,0.00,Wunderground v.1.15,2013-10-09 11:07:00,
2013-10-09 06:12:00,54.1,42.2,29.81,SE,135,4.0,-999.0,64,0.00,,,0.00,Wunderground v.1.15,2013-10-09 11:12:00,
2013-10-09 06:17:00,53.3,42.2,29.81,SE,135,4.0,-999.0,66,0.00,,,0.00,Wunderground v.1.15,2013-10-09 11:17:00,
2013-10-09 06:22:00,53.3,42.2,29.81,SE,135,4.0,-999.0,66,0.00,,,0.00,Wunderground v.1.15,2013-10-09 11:22:00,
2013-10-09 06:27:00,53.3,42.2,29.81,SE,135,4.0,-999.0,66,0.00,,,0.00,Wunderground v.1.15,2013-10-09 11:27:00,
2013-10-09 06:32:00,53.3,42.2,29.81,SE,135,4.0,-999.0,66,0.00,,,0.00,Wunderground v.1.15,2013-10-09 11:32:00,
2013-10-09 06:37:00,53.3,42.2,29.81,SE,135,4.0,-999.0,66,0.00,,,0.00,Wunderground v.1.15,2013-10-09 11:37:00,
2013-10-09 06:42:00,53.3,42.2,29.81,SE,135,4.0,-999.0,66,0.00,,,0.00,Wunderground v.1.15,2013-10-09 11:42:00,
2013-10-09 06:47:00,52.1,41.9,29.82,SE,135,2.0,-999.0,68,0.00,,,0.00,Wunderground v.1.15,2013-10-09 11:47:00,
2013-10-09 06:52:00,52.1,41.9,29.82,SE,135,2.0,-999.0,68,0.00,,,0.00,Wunderground v.1.15,2013-10-09 11:52:00,
2013-10-09 06:57:00,52.1,41.9,29.82,SE,135,2.0,-999.0,68,0.00,,,0.00,Wunderground v.1.15,2013-10-09 11:57:00,
2013-10-09 07:02:00,52.1,41.9,29.82,SE,135,2.0,-999.0,68,0.00,,,0.00,Wunderground v.1.15,2013-10-09 12:02:00,
2013-10-09 07:07:00,52.1,41.9,29.82,SE,135,2.0,-999.0,68,0.00,,,0.00,Wunderground v.1.15,2013-10-09 12:07:00,
2013-10-09 07:12:00,52.1,41.9,29.82,SE,135,2.0,-999.0,68,0.00,,,0.00,Wunderground v.1.15,2013-10-09 12:12:00,
2013-10-09 07:17:00,51.7,41.9,29.83,SE,135,2.0,-999.0,69,0.00,,,0.00,Wunderground v.1.15,2013-10-09 12:17:00,
2013-10-09 07:22:00,51.7,41.9,29.83,SE,135,2.0,-999.0,69,0.00,,,0.00,Wunderground v.1.15,2013-10-09 12:22:00,
2013-10-09 07:27:00,51.7,41.9,29.83,SE,135,2.0,-999.0,69,0.00,,,0.00,Wunderground v.1.15,2013-10-09 12:27:00,
2013-10-09 07:32:00,51.7,41.9,29.83,SE,135,2.0,-999.0,69,0.00,,,0.00,Wunderground v.1.15,2013-10-09 12:32:00,
2013-10-09 07:37:00,51.7,41.9,29.83,SE,135,2.0,-999.0,69,0.00,,,0.00,Wunderground v.1.15,2013-10-09 12:37:00,
2013-10-09 07:42:00,51.7,41.9,29.83,SE,135,2.0,-999.0,69,0.00,,,0.00,Wunderground v.1.15,2013-10-09 12:42:00,
2013-10-09 07:47:00,49.5,40.8,29.83,SE,135,2.0,-999.0,72,0.00,,,0.00,Wunderground v.1.15,2013-10-09 12:47:00,
2013-10-09 07:52:00,49.5,40.8,29.83,SE,135,2.0,-999.0,72,0.00,,,0.00,Wunderground v.1.15,2013-10-09 12:52:00,
2013-10-09 07:57:00,49.5,40.8,29.83,SE,135,2.0,-999.0,72,0.00,,,0.00,Wunderground v.1.15,2013-10-09 12:57:00,
2013-10-09 08:02:00,49.5,40.8,29.83,SE,135,2.0,-999.0,72,0.00,,,0.00,Wunderground v.1.15,2013-10-09 13:02:00,
2013-10-09 08:07:00,49.5,40.8,29.83,SE,135,2.0,-999.0,72,0.00,,,0.00,Wunderground v.1.15,2013-10-09 13:07:00,
2013-10-09 08:12:00,49.5,40.8,29.83,SE,135,2.0,-999.0,72,0.00,,,0.00,Wunderground v.1.15,2013-10-09 13:12:00,
2013-10-09 08:17:00,48.8,41.2,29.84,SE,135,1.0,-999.0,75,0.00,,,0.00,Wunderground v.1.15,2013-10-09 13:17:00,
2013-10-09 08:22:00,48.8,41.2,29.84,SE,135,1.0,-999.0,75,0.00,,,0.00,Wunderground v.1.15,2013-10-09 13:22:00,
2013-10-09 08:27:00,48.8,41.2,29.84,SE,135,1.0,-999.0,75,0.00,,,0.00,Wunderground v.1.15,2013-10-09 13:27:00,
2013-10-09 08:32:00,48.8,41.2,29.84,SE,135,1.0,-999.0,75,0.00,,,0.00,Wunderground v.1.15,2013-10-09 13:32:00,
2013-10-09 08:37:00,48.8,41.2,29.84,SE,135,1.0,-999.0,75,0.00,,,0.00,Wunderground v.1.15,2013-10-09 13:37:00,
2013-10-09 08:42:00,48.8,41.2,29.84,SE,135,1.0,-999.0,75,0.00,,,0.00,Wunderground v.1.15,2013-10-09 13:42:00,
2013-10-09 08:47:00,51.4,43.0,29.85,SE,135,2.0,-999.0,73,0.00,,,0.00,Wunderground v.1.15,2013-10-09 13:47:00,
2013-10-09 08:52:00,51.4,43.0,29.85,SE,135,2.0,-999.0,73,0.00,,,0.00,Wunderground v.1.15,2013-10-09 13:52:00,
2013-10-09 08:57:00,51.4,43.0,29.85,SE,135,2.0,-999.0,73,0.00,,,0.00,Wunderground v.1.15,2013-10-09 13:57:00,
2013-10-09 09:02:00,51.4,43.0,29.85,SE,135,2.0,-999.0,73,0.00,,,0.00,Wunderground v.1.15,2013-10-09 14:02:00,
2013-10-09 09:07:00,51.4,43.0,29.85,SE,135,2.0,-999.0,73,0.00,,,0.00,Wunderground v.1.15,2013-10-09 14:07:00,
2013-10-09 09:12:00,51.4,43.0,29.85,SE,135,2.0,-999.0,73,0.00,,,0.00,Wunderground v.1.15,2013-10-09 14:12:00,
2013-10-09 09:17:00,53.2,44.4,29.86,SE,135,3.0,-999.0,72,0.00,,,0.00,Wunderground v.1.15,2013-10-09 14:17:00,
2013-10-09 09:22:00,53.2,44.4,29.86,SE,135,3.0,-999.0,72,0.00,,,0.00,Wunderground v.1.15,2013-10-09 14:22:00,
2013-10-09 09:27:00,53.2,44.4,29.86,SE,135,3.0,-999.0,72,0.00,,,0.00,Wunderground v.1.15,2013-10-09 14:27:00,
2013-10-09 09:32:00,53.2,44.4,29.86,SE,135,3.0,-999.0,72,0.00,,,0.00,Wunderground v.1.15,2013-10-09 14:32:00,
2013-10-09 09:37:00,53.2,44.4,29.86,SE,135,3.0,-999.0,72,0.00,,,0.00,Wunderground v.1.15,2013-10-09 14:37:00,
2013-10-09 09:42:00,53.2,44.4,29.86,SE,135,3.0,-999.0,72,0.00,,,0.00,Wunderground v.1.15,2013-10-09 14:42:00,
2013-10-09 09:47:00,55.7,44.9,29.87,ESE,113,4.0,-999.0,67,0.00,,,0.00,Wunderground v.1.15,2013-10-09 14:47:00,
2013-10-09 09:52:00,55.7,44.9,29.87,ESE,113,4.0,-999.0,67,0.00,,,0.00,Wunderground v.1.15,2013-10-09 14:52:00,
2013-10-09 09:57:00,55.7,44.9,29.87,ESE,113,4.0,-999.0,67,0.00,,,0.00,Wunderground v.1.15,2013-10-09 14:57:00,
2013-10-09 10:02:00,55.7,44.9,29.87,ESE,113,4.0,-999.0,67,0.00,,,0.00,Wunderground v.1.15,2013-10-09 15:02:00,
2013-10-09 10:07:00,55.7,44.9,29.87,ESE,113,4.0,-999.0,67,0.00,,,0.00,Wunderground v.1.15,2013-10-09 15:07:00,
2013-10-09 10:12:00,55.7,44.9,29.87,ESE,113,4.0,-999.0,67,0.00,,,0.00,Wunderground v.1.15,2013-10-09 15:12:00,
2013-10-09 10:17:00,59.0,45.6,29.87,ESE,113,5.0,-999.0,61,0.00,,,0.00,Wunderground v.1.15,2013-10-09 15:17:00,
2013-10-09 10:22:00,59.0,45.6,29.87,ESE,113,5.0,-999.0,61,0.00,,,0.00,Wunderground v.1.15,2013-10-09 15:22:00,
2013-10-09 10:27:00,59.0,45.6,29.87,ESE,113,5.0,-999.0,61,0.00,,,0.00,Wunderground v.1.15,2013-10-09 15:27:00,
2013-10-09 10:32:00,59.0,45.6,29.87,ESE,113,5.0,-999.0,61,0.00,,,0.00,Wunderground v.1.15,2013-10-09 15:32:00,
2013-10-09 10:37:00,59.0,45.6,29.87,ESE,113,5.0,-999.0,61,0.00,,,0.00,Wunderground v.1.15,2013-10-09 15:37:00,
2013-10-09 10:42:00,59.0,45.6,29.87,ESE,113,5.0,-999.0,61,0.00,,,0.00,Wunderground v.1.15,2013-10-09 15:42:00,
2013-10-09 10:47:00,61.2,44.9,29.87,SE,135,6.0,-999.0,55,0.00,,,0.00,Wunderground v.1.15,2013-10-09 15:47:00,
2013-10-09 10:52:00,61.2,44.9,29.87,SE,135,6.0,-999.0,55,0.00,,,0.00,Wunderground v.1.15,2013-10-09 15:52:00,
2013-10-09 10:57:00,61.2,44.9,29.87,SE,135,6.0,-999.0,55,0.00,,,0.00,Wunderground v.1.15,2013-10-09 15:57:00,
2013-10-09 11:02:00,61.2,44.9,29.87,SE,135,6.0,-999.0,55,0.00,,,0.00,Wunderground v.1.15,2013-10-09 16:02:00,
2013-10-09 11:07:00,61.2,44.9,29.87,SE,135,6.0,-999.0,55,0.00,,,0.00,Wunderground v.1.15,2013-10-09 16:07:00,
2013-10-09 11:12:00,61.2,44.9,29.87,SE,135,6.0,-999.0,55,0.00,,,0.00,Wunderground v.1.15,2013-10-09 16:12:00,
2013-10-09 11:17:00,62.9,45.0,29.87,SE,135,5.0,-999.0,52,0.00,,,0.00,Wunderground v.1.15,2013-10-09 16:17:00,
2013-10-09 11:22:00,62.9,45.0,29.87,SE,135,5.0,-999.0,52,0.00,,,0.00,Wunderground v.1.15,2013-10-09 16:22:00,
2013-10-09 11:27:00,62.9,45.0,29.87,SE,135,5.0,-999.0,52,0.00,,,0.00,Wunderground v.1.15,2013-10-09 16:27:00,
2013-10-09 11:32:00,62.9,45.0,29.87,SE,135,5.0,-999.0,52,0.00,,,0.00,Wunderground v.1.15,2013-10-09 16:32:00,
2013-10-09 11:37:00,62.9,45.0,29.87,SE,135,5.0,-999.0,52,0.00,,,0.00,Wunderground v.1.15,2013-10-09 16:37:00,
2013-10-09 11:42:00,62.9,45.0,29.87,SE,135,5.0,-999.0,52,0.00,,,0.00,Wunderground v.1.15,2013-10-09 16:42:00,
2013-10-09 11:47:00,64.3,44.7,29.87,ESE,113,7.0,-999.0,49,0.00,,,0.00,Wunderground v.1.15,2013-10-09 16:47:00,
2013-10-09 11:52:00,64.3,44.7,29.87,ESE,113,7.0,-999.0,49,0.00,,,0.00,Wunderground v.1.15,2013-10-09 16:52:00,
2013-10-09 11:57:00,64.3,44.7,29.87,ESE,113,7.0,-999.0,49,0.00,,,0.00,Wunderground v.1.15,2013-10-09 16:57:00,
2013-10-09 12:02:00,64.3,44.7,29.87,ESE,113,7.0,-999.0,49,0.00,,,0.00,Wunderground v.1.15,2013-10-09 17:02:00,
2013-10-09 12:07:00,64.3,44.7,29.87,ESE,113,7.0,-999.0,49,0.00,,,0.00,Wunderground v.1.15,2013-10-09 17:07:00,
2013-10-09 12:12:00,64.3,44.7,29.87,ESE,113,7.0,-999.0,49,0.00,,,0.00,Wunderground v.1.15,2013-10-09 17:12:00,
2013-10-09 12:17:00,66.1,45.3,29.87,ESE,113,7.0,-999.0,47,0.00,,,0.00,Wunderground v.1.15,2013-10-09 17:17:00,
2013-10-09 12:22:00,66.1,45.3,29.87,ESE,113,7.0,-999.0,47,0.00,,,0.00,Wunderground v.1.15,2013-10-09 17:22:00,
2013-10-09 12:27:00,66.1,45.3,29.87,ESE,113,7.0,-999.0,47,0.00,,,0.00,Wunderground v.1.15,2013-10-09 17:27:00,
2013-10-09 12:37:00,66.1,45.3,29.87,ESE,113,7.0,-999.0,47,0.00,,,0.00,Wunderground v.1.15,2013-10-09 17:37:00,
2013-10-09 12:42:00,66.1,45.3,29.87,ESE,113,7.0,-999.0,47,0.00,,,0.00,Wunderground v.1.15,2013-10-09 17:42:00,
2013-10-09 12:47:00,67.5,46.0,29.86,SE,135,8.0,-999.0,46,0.00,,,0.00,Wunderground v.1.15,2013-10-09 17:47:00,
2013-10-09 12:52:00,67.5,46.0,29.86,SE,135,8.0,-999.0,46,0.00,,,0.00,Wunderground v.1.15,2013-10-09 17:52:00,
2013-10-09 12:57:00,67.5,46.0,29.86,SE,135,8.0,-999.0,46,0.00,,,0.00,Wunderground v.1.15,2013-10-09 17:57:00,
2013-10-09 13:02:00,67.5,46.0,29.86,SE,135,8.0,-999.0,46,0.00,,,0.00,Wunderground v.1.15,2013-10-09 18:02:00,
2013-10-09 13:07:00,67.5,46.0,29.86,SE,135,8.0,-999.0,46,0.00,,,0.00,Wunderground v.1.15,2013-10-09 18:07:00,
2013-10-09 13:12:00,67.5,46.0,29.86,SE,135,8.0,-999.0,46,0.00,,,0.00,Wunderground v.1.15,2013-10-09 18:12:00,
2013-10-09 13:17:00,69.1,46.9,29.85,SE,135,8.0,-999.0,45,0.00,,,0.00,Wunderground v.1.15,2013-10-09 18:17:00,
2013-10-09 13:22:00,69.1,46.9,29.85,SE,135,8.0,-999.0,45,0.00,,,0.00,Wunderground v.1.15,2013-10-09 18:22:00,
2013-10-09 13:27:00,69.1,46.9,29.85,SE,135,8.0,-999.0,45,0.00,,,0.00,Wunderground v.1.15,2013-10-09 18:27:00,
2013-10-09 13:32:00,69.1,46.9,29.85,SE,135,8.0,-999.0,45,0.00,,,0.00,Wunderground v.1.15,2013-10-09 18:32:00,
2013-10-09 13:37:00,69.1,46.9,29.85,SE,135,8.0,-999.0,45,0.00,,,0.00,Wunderground v.1.15,2013-10-09 18:37:00,
2013-10-09 13:42:00,69.1,46.9,29.85,SE,135,8.0,-999.0,45,0.00,,,0.00,Wunderground v.1.15,2013-10-09 18:42:00,
2013-10-09 13:47:00,70.3,47.9,29.85,SE,135,8.0,-999.0,45,0.00,,,0.00,Wunderground v.1.15,2013-10-09 18:47:00,
2013-10-09 13:52:00,70.3,47.9,29.85,SE,135,8.0,-999.0,45,0.00,,,0.00,Wunderground v.1.15,2013-10-09 18:52:00,
2013-10-09 13:57:00,70.3,47.9,29.85,SE,135,8.0,-999.0,45,0.00,,,0.00,Wunderground v.1.15,2013-10-09 18:57:00,
2013-10-09 14:02:00,70.3,47.9,29.85,SE,135,8.0,-999.0,45,0.00,,,0.00,Wunderground v.1.15,2013-10-09 19:02:00,
2013-10-09 14:07:00,70.3,47.9,29.85,SE,135,8.0,-999.0,45,0.00,,,0.00,Wunderground v.1.15,2013-10-09 19:07:00,
2013-10-09 14:12:00,70.3,47.9,29.85,SE,135,8.0,-999.0,45,0.00,,,0.00,Wunderground v.1.15,2013-10-09 19:12:00,
2013-10-09 14:17:00,72.6,47.5,29.84,SE,135,8.0,-999.0,41,0.00,,,0.00,Wunderground v.1.15,2013-10-09 19:17:00,
2013-10-09 14:22:00,72.6,47.5,29.84,SE,135,8.0,-999.0,41,0.00,,,0.00,Wunderground v.1.15,2013-10-09 19:22:00,
2013-10-09 14:27:00,72.6,47.5,29.84,SE,135,8.0,-999.0,41,0.00,,,0.00,Wunderground v.1.15,2013-10-09 19:27:00,
2013-10-09 14:32:00,72.6,47.5,29.84,SE,135,8.0,-999.0,41,0.00,,,0.00,Wunderground v.1.15,2013-10-09 19:32:00,
2013-10-09 14:37:00,72.6,47.5,29.84,SE,135,8.0,-999.0,41,0.00,,,0.00,Wunderground v.1.15,2013-10-09 19:37:00,
2013-10-09 14:42:00,72.6,47.5,29.84,SE,135,8.0,-999.0,41,0.00,,,0.00,Wunderground v.1.15,2013-10-09 19:42:00,
2013-10-09 14:47:00,73.4,46.9,29.83,SE,135,9.0,-999.0,39,0.00,,,0.00,Wunderground v.1.15,2013-10-09 19:47:00,
2013-10-09 14:52:00,73.4,46.9,29.83,SE,135,9.0,-999.0,39,0.00,,,0.00,Wunderground v.1.15,2013-10-09 19:52:00,
2013-10-09 14:57:00,73.4,46.9,29.83,SE,135,9.0,-999.0,39,0.00,,,0.00,Wunderground v.1.15,2013-10-09 19:57:00,
2013-10-09 15:02:00,73.4,46.9,29.83,SE,135,9.0,-999.0,39,0.00,,,0.00,Wunderground v.1.15,2013-10-09 20:02:00,
2013-10-09 15:07:00,73.4,46.9,29.83,SE,135,9.0,-999.0,39,0.00,,,0.00,Wunderground v.1.15,2013-10-09 20:07:00,
2013-10-09 15:12:00,73.4,46.9,29.83,SE,135,9.0,-999.0,39,0.00,,,0.00,Wunderground v.1.15,2013-10-09 20:12:00,
2013-10-09 15:17:00,74.7,48.1,29.83,SSE,158,8.0,-999.0,39,0.00,,,0.00,Wunderground v.1.15,2013-10-09 20:17:00,
2013-10-09 15:22:00,74.7,48.1,29.83,SSE,158,8.0,-999.0,39,0.00,,,0.00,Wunderground v.1.15,2013-10-09 20:22:00,
2013-10-09 15:27:00,74.7,48.1,29.83,SSE,158,8.0,-999.0,39,0.00,,,0.00,Wunderground v.1.15,2013-10-09 20:27:00,
2013-10-09 15:32:00,74.7,48.1,29.83,SSE,158,8.0,-999.0,39,0.00,,,0.00,Wunderground v.1.15,2013-10-09 20:32:00,
2013-10-09 15:37:00,74.7,48.1,29.83,SSE,158,8.0,-999.0,39,0.00,,,0.00,Wunderground v.1.15,2013-10-09 20:37:00,
2013-10-09 15:42:00,74.7,48.1,29.83,SSE,158,8.0,-999.0,39,0.00,,,0.00,Wunderground v.1.15,2013-10-09 20:42:00,
2013-10-09 15:47:00,75.5,48.8,29.83,SSE,158,9.0,-999.0,39,0.00,,,0.00,Wunderground v.1.15,2013-10-09 20:47:00,
2013-10-09 15:52:00,75.5,48.8,29.83,SSE,158,9.0,-999.0,39,0.00,,,0.00,Wunderground v.1.15,2013-10-09 20:52:00,
2013-10-09 15:57:00,75.5,48.8,29.83,SSE,158,9.0,-999.0,39,0.00,,,0.00,Wunderground v.1.15,2013-10-09 20:57:00,
2013-10-09 16:02:00,75.5,48.8,29.83,SSE,158,9.0,-999.0,39,0.00,,,0.00,Wunderground v.1.15,2013-10-09 21:02:00,
2013-10-09 16:07:00,75.5,48.8,29.83,SSE,158,9.0,-999.0,39,0.00,,,0.00,Wunderground v.1.15,2013-10-09 21:07:00,
2013-10-09 16:12:00,75.5,48.8,29.83,SSE,158,9.0,-999.0,39,0.00,,,0.00,Wunderground v.1.15,2013-10-09 21:12:00,
2013-10-09 16:17:00,76.6,49.1,29.82,SSE,158,9.0,-999.0,38,0.00,,,0.00,Wunderground v.1.15,2013-10-09 21:17:00,
2013-10-09 16:22:00,76.6,49.1,29.82,SSE,158,9.0,-999.0,38,0.00,,,0.00,Wunderground v.1.15,2013-10-09 21:22:00,
2013-10-09 16:27:00,76.6,49.1,29.82,SSE,158,9.0,-999.0,38,0.00,,,0.00,Wunderground v.1.15,2013-10-09 21:27:00,
2013-10-09 16:32:00,76.6,49.1,29.82,SSE,158,9.0,-999.0,38,0.00,,,0.00,Wunderground v.1.15,2013-10-09 21:32:00,
2013-10-09 16:37:00,76.6,49.1,29.82,SSE,158,9.0,-999.0,38,0.00,,,0.00,Wunderground v.1.15,2013-10-09 21:37:00,
2013-10-09 16:42:00,76.6,49.1,29.82,SSE,158,9.0,-999.0,38,0.00,,,0.00,Wunderground v.1.15,2013-10-09 21:42:00,
2013-10-09 16:47:00,77.3,49.0,29.82,SSE,158,8.0,-999.0,37,0.00,,,0.00,Wunderground v.1.15,2013-10-09 21:47:00,
2013-10-09 16:52:00,77.3,49.0,29.82,SSE,158,8.0,-999.0,37,0.00,,,0.00,Wunderground v.1.15,2013-10-09 21:52:00,
2013-10-09 16:57:00,77.3,49.0,29.82,SSE,158,8.0,-999.0,37,0.00,,,0.00,Wunderground v.1.15,2013-10-09 21:57:00,
2013-10-09 17:02:00,77.3,49.0,29.82,SSE,158,8.0,-999.0,37,0.00,,,0.00,Wunderground v.1.15,2013-10-09 22:02:00,
2013-10-09 17:07:00,77.3,49.0,29.82,SSE,158,8.0,-999.0,37,0.00,,,0.00,Wunderground v.1.15,2013-10-09 22:07:00,
2013-10-09 17:12:00,77.3,49.0,29.82,SSE,158,8.0,-999.0,37,0.00,,,0.00,Wunderground v.1.15,2013-10-09 22:12:00,
2013-10-09 17:17:00,78.1,49.7,29.82,SSE,158,8.0,-999.0,37,0.00,,,0.00,Wunderground v.1.15,2013-10-09 22:17:00,
2013-10-09 17:22:00,78.1,49.7,29.82,SSE,158,8.0,-999.0,37,0.00,,,0.00,Wunderground v.1.15,2013-10-09 22:22:00,
2013-10-09 17:27:00,78.1,49.7,29.82,SSE,158,8.0,-999.0,37,0.00,,,0.00,Wunderground v.1.15,2013-10-09 22:27:00,
2013-10-09 17:32:00,78.1,49.7,29.82,SSE,158,8.0,-999.0,37,0.00,,,0.00,Wunderground v.1.15,2013-10-09 22:32:00,
2013-10-09 17:37:00,78.1,49.7,29.82,SSE,158,8.0,-999.0,37,0.00,,,0.00,Wunderground v.1.15,2013-10-09 22:37:00,
2013-10-09 17:42:00,78.1,49.7,29.82,SSE,158,8.0,-999.0,37,0.00,,,0.00,Wunderground v.1.15,2013-10-09 22:42:00,
2013-10-09 17:47:00,77.9,48.8,29.82,South,180,5.0,-999.0,36,0.00,,,0.00,Wunderground v.1.15,2013-10-09 22:47:00,
2013-10-09 17:52:00,77.9,48.8,29.82,South,180,5.0,-999.0,36,0.00,,,0.00,Wunderground v.1.15,2013-10-09 22:52:00,
2013-10-09 17:57:00,77.9,48.8,29.82,South,180,5.0,-999.0,36,0.00,,,0.00,Wunderground v.1.15,2013-10-09 22:57:00,
2013-10-09 18:02:00,77.9,48.8,29.82,South,180,5.0,-999.0,36,0.00,,,0.00,Wunderground v.1.15,2013-10-09 23:02:00,
2013-10-09 18:07:00,77.9,48.8,29.82,South,180,5.0,-999.0,36,0.00,,,0.00,Wunderground v.1.15,2013-10-09 23:07:00,
2013-10-09 18:12:00,77.9,48.8,29.82,South,180,5.0,-999.0,36,0.00,,,0.00,Wunderground v.1.15,2013-10-09 23:12:00,
2013-10-09 18:17:00,77.2,47.4,29.82,SSW,203,4.0,-999.0,35,0.00,,,0.00,Wunderground v.1.15,2013-10-09 23:17:00,
2013-10-09 18:22:00,77.2,47.4,29.82,SSW,203,4.0,-999.0,35,0.00,,,0.00,Wunderground v.1.15,2013-10-09 23:22:00,
2013-10-09 18:27:00,77.2,47.4,29.82,SSW,203,4.0,-999.0,35,0.00,,,0.00,Wunderground v.1.15,2013-10-09 23:27:00,
2013-10-09 18:32:00,77.2,47.4,29.82,SSW,203,4.0,-999.0,35,0.00,,,0.00,Wunderground v.1.15,2013-10-09 23:32:00,
2013-10-09 18:37:00,77.2,47.4,29.82,SSW,203,4.0,-999.0,35,0.00,,,0.00,Wunderground v.1.15,2013-10-09 23:37:00,
2013-10-09 18:42:00,77.2,47.4,29.82,SSW,203,4.0,-999.0,35,0.00,,,0.00,Wunderground v.1.15,2013-10-09 23:42:00,
2013-10-09 18:47:00,74.8,50.2,29.83,SSW,203,1.0,-999.0,42,0.00,,,0.00,Wunderground v.1.15,2013-10-09 23:47:00,
2013-10-09 18:52:00,74.8,50.2,29.83,SSW,203,1.0,-999.0,42,0.00,,,0.00,Wunderground v.1.15,2013-10-09 23:52:00,
2013-10-09 18:57:00,74.8,50.2,29.83,SSW,203,1.0,-999.0,42,0.00,,,0.00,Wunderground v.1.15,2013-10-09 23:57:00,
2013-10-09 19:02:00,74.8,50.2,29.83,SSW,203,1.0,-999.0,42,0.00,,,0.00,Wunderground v.1.15,2013-10-10 00:02:00,
2013-10-09 19:07:00,74.8,50.2,29.83,SSW,203,1.0,-999.0,42,0.00,,,0.00,Wunderground v.1.15,2013-10-10 00:07:00,
2013-10-09 19:12:00,74.8,50.2,29.83,SSW,203,1.0,-999.0,42,0.00,,,0.00,Wunderground v.1.15,2013-10-10 00:12:00,
2013-10-09 19:17:00,70.6,49.4,29.84,N/A,-737280,0.0,-999.0,47,0.00,,,0.00,Wunderground v.1.15,2013-10-10 00:17:00,
2013-10-09 19:22:00,70.6,49.4,29.84,N/A,-737280,0.0,-999.0,47,0.00,,,0.00,Wunderground v.1.15,2013-10-10 00:22:00,
2013-10-09 19:27:00,70.6,49.4,29.84,N/A,-737280,0.0,-999.0,47,0.00,,,0.00,Wunderground v.1.15,2013-10-10 00:27:00,
2013-10-09 19:32:00,70.6,49.4,29.84,N/A,-737280,0.0,-999.0,47,0.00,,,0.00,Wunderground v.1.15,2013-10-10 00:32:00,
2013-10-09 19:37:00,70.6,49.4,29.84,N/A,-737280,0.0,-999.0,47,0.00,,,0.00,Wunderground v.1.15,2013-10-10 00:37:00,
2013-10-09 19:42:00,70.6,49.4,29.84,N/A,-737280,0.0,-999.0,47,0.00,,,0.00,Wunderground v.1.15,2013-10-10 00:42:00,
2013-10-09 19:47:00,66.0,48.9,29.85,N/A,-737280,0.0,-999.0,54,0.00,,,0.00,Wunderground v.1.15,2013-10-10 00:47:00,
2013-10-09 19:52:00,66.0,48.9,29.85,N/A,-737280,0.0,-999.0,54,0.00,,,0.00,Wunderground v.1.15,2013-10-10 00:52:00,
2013-10-09 19:57:00,66.0,48.9,29.85,N/A,-737280,0.0,-999.0,54,0.00,,,0.00,Wunderground v.1.15,2013-10-10 00:57:00,
2013-10-09 20:02:00,66.0,48.9,29.85,N/A,-737280,0.0,-999.0,54,0.00,,,0.00,Wunderground v.1.15,2013-10-10 01:02:00,
2013-10-09 20:07:00,66.0,48.9,29.85,N/A,-737280,0.0,-999.0,54,0.00,,,0.00,Wunderground v.1.15,2013-10-10 01:07:00,
2013-10-09 20:12:00,66.0,48.9,29.85,N/A,-737280,0.0,-999.0,54,0.00,,,0.00,Wunderground v.1.15,2013-10-10 01:12:00,
2013-10-09 20:17:00,62.2,48.1,29.86,N/A,-737280,0.0,-999.0,60,0.00,,,0.00,Wunderground v.1.15,2013-10-10 01:17:00,
2013-10-09 20:22:00,62.2,48.1,29.86,N/A,-737280,0.0,-999.0,60,0.00,,,0.00,Wunderground v.1.15,2013-10-10 01:22:00,
2013-10-09 20:27:00,62.2,48.1,29.86,N/A,-737280,0.0,-999.0,60,0.00,,,0.00,Wunderground v.1.15,2013-10-10 01:27:00,
2013-10-09 20:32:00,62.2,48.1,29.86,N/A,-737280,0.0,-999.0,60,0.00,,,0.00,Wunderground v.1.15,2013-10-10 01:32:00,
2013-10-09 20:37:00,62.2,48.1,29.86,N/A,-737280,0.0,-999.0,60,0.00,,,0.00,Wunderground v.1.15,2013-10-10 01:37:00,
2013-10-09 20:42:00,62.2,48.1,29.86,N/A,-737280,0.0,-999.0,60,0.00,,,0.00,Wunderground v.1.15,2013-10-10 01:42:00,
2013-10-09 20:47:00,60.5,48.7,29.87,SSW,203,0.0,-999.0,65,0.00,,,0.00,Wunderground v.1.15,2013-10-10 01:47:00,
2013-10-09 20:52:00,60.5,48.7,29.87,SSW,203,0.0,-999.0,65,0.00,,,0.00,Wunderground v.1.15,2013-10-10 01:52:00,
2013-10-09 20:57:00,60.5,48.7,29.87,SSW,203,0.0,-999.0,65,0.00,,,0.00,Wunderground v.1.15,2013-10-10 01:57:00,
2013-10-09 21:02:00,60.5,48.7,29.87,SSW,203,0.0,-999.0,65,0.00,,,0.00,Wunderground v.1.15,2013-10-10 02:02:00,
2013-10-09 21:07:00,60.5,48.7,29.87,SSW,203,0.0,-999.0,65,0.00,,,0.00,Wunderground v.1.15,2013-10-10 02:07:00,
2013-10-09 21:12:00,60.5,48.7,29.87,SSW,203,0.0,-999.0,65,0.00,,,0.00,Wunderground v.1.15,2013-10-10 02:12:00,
2013-10-09 21:17:00,59.9,49.7,29.88,SSW,203,0.0,-999.0,69,0.00,,,0.00,Wunderground v.1.15,2013-10-10 02:17:00,
2013-10-09 21:22:00,59.9,49.7,29.88,SSW,203,0.0,-999.0,69,0.00,,,0.00,Wunderground v.1.15,2013-10-10 02:22:00,
2013-10-09 21:27:00,59.9,49.7,29.88,SSW,203,0.0,-999.0,69,0.00,,,0.00,Wunderground v.1.15,2013-10-10 02:27:00,
2013-10-09 21:32:00,59.9,49.7,29.88,SSW,203,0.0,-999.0,69,0.00,,,0.00,Wunderground v.1.15,2013-10-10 02:32:00,
2013-10-09 21:37:00,59.9,49.7,29.88,SSW,203,0.0,-999.0,69,0.00,,,0.00,Wunderground v.1.15,2013-10-10 02:37:00,
2013-10-09 21:42:00,59.9,49.7,29.88,SSW,203,0.0,-999.0,69,0.00,,,0.00,Wunderground v.1.15,2013-10-10 02:42:00,
2013-10-09 21:47:00,59.0,48.8,29.88,SSW,203,0.0,-999.0,69,0.00,,,0.00,Wunderground v.1.15,2013-10-10 02:47:00,
2013-10-09 21:52:00,59.0,48.8,29.88,SSW,203,0.0,-999.0,69,0.00,,,0.00,Wunderground v.1.15,2013-10-10 02:52:00,
2013-10-09 21:57:00,59.0,48.8,29.88,SSW,203,0.0,-999.0,69,0.00,,,0.00,Wunderground v.1.15,2013-10-10 02:57:00,
2013-10-09 22:02:00,59.0,48.8,29.88,SSW,203,0.0,-999.0,69,0.00,,,0.00,Wunderground v.1.15,2013-10-10 03:02:00,
2013-10-09 22:07:00,59.0,48.8,29.88,SSW,203,0.0,-999.0,69,0.00,,,0.00,Wunderground v.1.15,2013-10-10 03:07:00,
2013-10-09 22:12:00,59.0,48.8,29.88,SSW,203,0.0,-999.0,69,0.00,,,0.00,Wunderground v.1.15,2013-10-10 03:12:00,
2013-10-09 22:17:00,59.3,47.5,29.89,SSW,203,0.0,-999.0,65,0.00,,,0.00,Wunderground v.1.15,2013-10-10 03:17:00,
2013-10-09 22:22:00,59.3,47.5,29.89,SSW,203,0.0,-999.0,65,0.00,,,0.00,Wunderground v.1.15,2013-10-10 03:22:00,
2013-10-09 22:27:00,59.3,47.5,29.89,SSW,203,0.0,-999.0,65,0.00,,,0.00,Wunderground v.1.15,2013-10-10 03:27:00,
2013-10-09 22:32:00,59.3,47.5,29.89,SSW,203,0.0,-999.0,65,0.00,,,0.00,Wunderground v.1.15,2013-10-10 03:32:00,
2013-10-09 22:37:00,59.3,47.5,29.89,SSW,203,0.0,-999.0,65,0.00,,,0.00,Wunderground v.1.15,2013-10-10 03:37:00,
2013-10-09 22:42:00,59.3,47.5,29.89,SSW,203,0.0,-999.0,65,0.00,,,0.00,Wunderground v.1.15,2013-10-10 03:42:00,
2013-10-09 22:47:00,63.0,47.5,29.89,SSW,203,2.0,-999.0,57,0.00,,,0.00,Wunderground v.1.15,2013-10-10 03:47:00,
2013-10-09 22:52:00,63.0,47.5,29.89,SSW,203,2.0,-999.0,57,0.00,,,0.00,Wunderground v.1.15,2013-10-10 03:52:00,
2013-10-09 22:57:00,63.0,47.5,29.89,SSW,203,2.0,-999.0,57,0.00,,,0.00,Wunderground v.1.15,2013-10-10 03:57:00,
2013-10-09 23:02:00,63.0,47.5,29.89,SSW,203,2.0,-999.0,57,0.00,,,0.00,Wunderground v.1.15,2013-10-10 04:02:00,
2013-10-09 23:07:00,63.0,47.5,29.89,SSW,203,2.0,-999.0,57,0.00,,,0.00,Wunderground v.1.15,2013-10-10 04:07:00,
2013-10-09 23:12:00,63.0,47.5,29.89,SSW,203,2.0,-999.0,57,0.00,,,0.00,Wunderground v.1.15,2013-10-10 04:12:00,
2013-10-09 23:17:00,62.9,47.4,29.89,SSE,158,4.0,-999.0,57,0.00,,,0.00,Wunderground v.1.15,2013-10-10 04:17:00,
2013-10-09 23:22:00,62.9,47.4,29.89,SSE,158,4.0,-999.0,57,0.00,,,0.00,Wunderground v.1.15,2013-10-10 04:22:00,
2013-10-09 23:27:00,62.9,47.4,29.89,SSE,158,4.0,-999.0,57,0.00,,,0.00,Wunderground v.1.15,2013-10-10 04:27:00,
2013-10-09 23:32:00,62.9,47.4,29.89,SSE,158,4.0,-999.0,57,0.00,,,0.00,Wunderground v.1.15,2013-10-10 04:32:00,
2013-10-09 23:37:00,62.9,47.4,29.89,SSE,158,4.0,-999.0,57,0.00,,,0.00,Wunderground v.1.15,2013-10-10 04:37:00,
2013-10-09 23:42:00,62.9,47.4,29.89,SSE,158,4.0,-999.0,57,0.00,,,0.00,Wunderground v.1.15,2013-10-10 04:42:00,
2013-10-09 23:47:00,65.1,47.0,29.89,SE,135,6.0,-999.0,52,0.00,,,0.00,Wunderground v.1.15,2013-10-10 04:47:00,
2013-10-09 23:52:00,65.1,47.0,29.89,SE,135,6.0,-999.0,52,0.00,,,0.00,Wunderground v.1.15,2013-10-10 04:52:00,
2013-10-09 23:57:00,65.1,47.0,29.89,SE,135,6.0,-999.0,52,0.00,,,0.00,Wunderground v.1.15,2013-10-10 04:57:00,